STARLINK-1762, 46342

Orbit data source: Space-Track

STARLINK-1762, 46342 is a payload satellite owned by SpaceX/Seattle (US) in LEO that was launched on Thu, 03 Sep 2020 UTC via an FALCON 9 launch vehicle from the Air Force Eastern Test Range (AFETR). Payload-class satellites include a variety of spacecraft equipped with specific instruments for various scientific and technological missions. These include communications satellites like Starlink; space stations such as the ISS; scientific satellites like the Hubble; Earth observation satellites from companies like Planet Labs, Umbra, and HawkEye 360; GPS; miniature CubeSats for education and research; and military/defense satellites.

Loading next visibility...
Identifier
46342, 2020-062T
Orbit
LEO
Country
Flag of USUS
Related business
Manufacturer
SpaceX/Seattle
Mission
Partially operational Commercial Communications
Bus & Motor
STARLINK, Unknown motor
Mass
260 kg wet, ~248 kg dry
Launch date (UTC)
2020-09-03 (6 years ago)
Launch vehicle
FALCON 9
Launch site
Air Force Eastern Test Range (AFETR)
Object type
Payload
Rocket body
Debris
Shape & HBR
Box + 1 Pan, 10.1 m
Radar Cross Section
13.562 m², Large (>1 m²)

Expand to show TLE details & history
Last TLE update: 8 hours ago

TLE from 8 hours ago
0 STARLINK-1762
1 46342U 20062T   26166.58884245  .00048386  00000-0  12383-2 0  9992
2 46342  53.1550 273.4994 0002956 279.5214  80.5456 15.38959607319420
Epoch: 2026-06-15T14:07Z
TLE epoch observation values (Epoch: 2026-06-15T14:07:55.987Z)
Latitude
-0.00006°
Longitude
157.64301°
Altitude
449.756 km
Speed
7.644 km/s
True Right ascension
18h 13m 59s
True Declination
0° 00' 00"
Sunlit
Object was in full shadow at epoch
Visualization orbit readout
Latitude
Unknown
Longitude
Unknown
Altitude
Unknown
Speed
Unknown
Apparent Right ascension
Unknown
Apparent Declination
Unknown
Sunlit
N/A
Visualization observer readout
Local Sidereal Time
08:33:40
Azimuth
Unknown
Elevation
Unknown
Doppler factor
Unknown
Orbital elements
Apogee altitude
451.461 km
Perigee altitude
447.425 km
Semi-major axis
6,827.58 km
Eccentricity
0.0003
Inclination
53.155°
RAAN
273.4994°
Arg. of periapsis
279.5214°
True anomaly
80.57902°
Mean anomaly
80.5456°
Eccentric anomaly
80.56231°
Mean motion
3.84718 °/min
Orbital period
93.57 mins
BSTAR
0.0012383
Loading maneuver chart data...
Computing Atmospheric mass density...

Documentation

Showing up to 5 results
|